GW3897 Weather Reports


time (UTC)temp
C
wind
direction
speed
KPH
gust
KPH
rain 1hr
cm
rain 24hr
cm
rain mn
cm
humidity
%
barometer
mb
20260504081523 7 139 11.3 27.4 0.00 0.00 0.00 57 1005.4
20260504044536 11 180 25.7 40.2 0.00 0.00 0.00 32 1000.8
20260504043041 13 113 19.3 33.8 0.00 0.00 0.00 32 1000.3
20260504041535 13 79 11.3 24.1 0.00 0.00 0.00 31 1000.0
20260504040035 13 180 11.3 24.1 0.00 0.00 0.00 30 999.6
20260504034533 13 180 11.3 22.5 0.00 0.00 0.00 30 999.2
20260504033033 13 180 12.9 27.4 0.00 0.00 0.00 31 998.9
20260504031534 13 180 11.3 27.4 0.00 0.00 0.00 31 998.6
20260504030033 14 180 12.9 24.1 0.00 0.00 0.00 30 998.4
20260504024534 15 180 11.3 27.4 0.00 0.00 0.00 29 998.2
20260504023034 16 180 17.7 29.0 0.00 0.00 0.00 27 998.0
20260504021531 17 105 11.3 24.1 0.00 0.00 0.00 22 998.0
20260504020043 17 180 8.0 12.9 0.00 0.00 0.00 20 998.0
20260504014538 18 180 6.4 17.7 0.00 0.00 0.00 18 998.2
20260504013036 19 180 11.3 19.3 0.00 0.00 0.00 17 998.2
20260504011527 20 92 14.5 25.7 0.00 0.00 0.00 16 998.3
20260504010026 20 180 11.3 20.9 0.00 0.00 0.00 16 998.3
20260504004531 21 65 14.5 22.5 0.00 0.00 0.00 16 998.4
20260504003023 21 180 12.9 20.9 0.00 0.00 0.00 15 998.6
20260504001522 21 180 14.5 27.4 0.00 0.00 0.00 15 998.8
20260504000022 22 180 12.9 29.0 0.00 0.00 0.00 16 998.8
20260503234522 22 180 14.5 24.1 0.00 0.00 0.00 15 998.8
20260503233022 22 180 12.9 25.7 0.00 0.00 0.00 15 999.0
20260503231520 22 180 12.9 29.0 0.00 0.00 0.00 15 999.0
20260503230016 22 15 22.5 38.6 0.00 0.00 0.00 14 999.1
20260503224515 22 180 16.1 25.7 0.00 0.00 0.00 15 999.4
20260503223014 22 180 14.5 30.6 0.00 0.00 0.00 14 999.5
20260503221513 22 180 12.9 37.0 0.00 0.00 0.00 15 999.7
20260503220011 22 281 8.0 40.2 0.00 0.00 0.00 15 999.8
20260503214508 22 37 19.3 37.0 0.00 0.00 0.00 14 1000.2
20260503213009 22 180 19.3 33.8 0.00 0.00 0.00 15 1000.2
20260503211505 22 77 11.3 38.6 0.00 0.00 0.00 15 1000.4
20260503210005 21 18 17.7 33.8 0.00 0.00 0.00 16 1000.8
20260503204502 21 180 19.3 29.0 0.00 0.00 0.00 16 1001.0
20260503203003 21 18 17.7 30.6 0.00 0.00 0.00 17 1001.1
20260503201600 22 36 16.1 33.8 0.00 0.00 0.00 17 1001.2
20260503200105 21 180 9.7 27.4 0.00 0.00 0.00 17 1001.7
20260503194557 21 17 19.3 29.0 0.00 0.00 0.00 18 1001.9
20260503193055 21 180 11.3 25.7 0.00 0.00 0.00 19 1002.1
20260503191553 20 180 12.9 30.6 0.00 0.00 0.00 16 1002.3
20260503190058 20 180 16.1 41.8 0.00 0.00 0.00 16 1002.6
20260503184547 20 180 14.5 32.2 0.00 0.00 0.00 16 1002.6
20260503183045 20 6 14.5 30.6 0.00 0.00 0.00 17 1002.7
20260503181551 20 180 12.9 24.1 0.00 0.00 0.00 17 1002.9
20260503180049 20 349 12.9 24.1 0.00 0.00 0.00 17 1003.1
20260503174540 20 180 11.3 24.1 0.00 0.00 0.00 20 1003.3
20260503173039 20 71 12.9 27.4 0.00 0.00 0.00 20 1003.6
20260503171537 20 56 11.3 24.1 0.00 0.00 0.00 20 1003.5